Flag for China Weather past 2 weeks in Nanjing, Jiangsu, China

Now
70 °F

Fog.


Feels Like: 70 °F
Forecast: 67 / 87 °F
Wind: 3 mph from East

Location: Nanjing

Current Time: May 31, 2015 at 1:15:49 AM

Latest Report: May 31, 2015 at 12:00 AM


Visibility: 2 mi

Pressure: 29.80 "Hg

Humidity: 94%

Dew point: 68 °F

Location of NanjingLocation

Historic Weather in Nanjing — Graph

°F

Nanjing temperature yesterday

Maximum temperature yesterday: 79 °F (at 2:00 PM)
Minimum temperature yesterday: 68 °F (at 1:00 AM)
Average temperature yesterday: 73 °F

Past Weeks' High & Low Weather Summary

 TemperatureHumidityPressure
High86 °F (May 19, 5:00 PM)100% (May 18, 2:00 AM)30.04 "Hg (May 18, 2:00 AM)
Low55 °F (May 21, 3:00 AM)24% (May 20, 3:00 PM)29.59 "Hg (May 18, 3:00 AM)
Average72 °F75%29.77 "Hg
* Reported Midnight between May 15 and May 16 — Midnight between May 30 and May 31, Nanjing, Weather by CustomWeather, © 2015

Note: Actual official high and low records may vary slightly from our data, if they occured in-between our weather recording intervals... More about our weather records

Advertising

Nanjing weather history for previous 24 hours

 ConditionsComfort  
Time TempWeatherWind HumidityBarometerVisibility
12:00 AM
Sun, May 31
70 °FFog.3 mph94%29.80 "Hg2 mi
11:00 PM
Sat, May 30
70 °FFog.3 mph94%29.80 "Hg3 mi
10:00 PM70 °FClear.1 mph100%29.80 "Hg4 mi
9:00 PM72 °FClear.1 mph88%29.80 "Hg4 mi
8:00 PM73 °FClear.1 mph83%29.77 "Hg4 mi
7:00 PM73 °FClear.3 mph83%29.74 "Hg4 mi
6:00 PM77 °FClear.6 mph74%29.71 "Hg5 mi
5:00 PM79 °FPassing clouds.6 mph70%29.71 "Hg5 mi
4:00 PM79 °FPartly sunny.3 mph70%29.71 "Hg3 mi
3:00 PM79 °FPartly sunny.3 mph74%29.74 "Hg3 mi
2:00 PM79 °FPartly sunny.3 mph74%29.74 "Hg3 mi
1:00 PM75 °FFog.6 mph83%29.74 "Hg3 mi
12:00 PM75 °FFog.3 mph83%29.77 "Hg3 mi
11:00 AM75 °FFog.3 mph83%29.77 "Hg2 mi
10:00 AM72 °FFog.3 mph94%29.77 "Hg2 mi
9:00 AM73 °FFog.3 mph89%29.77 "Hg2 mi
8:00 AM72 °FFog.3 mph94%29.74 "Hg2 mi
7:00 AM70 °FFog.3 mph94%29.74 "Hg2 mi
6:00 AM70 °FFog.3 mph94%29.68 "Hg2 mi
5:00 AM68 °FFog.3 mph100%29.68 "Hg2 mi
4:00 AM68 °FFog.3 mph100%29.68 "Hg3 mi
3:00 AM68 °FFog.3 mph100%29.68 "Hg3 mi
2:00 AM68 °FFog.3 mph100%29.68 "Hg2 mi
1:00 AM68 °FFog.1 mph100%29.68 "Hg2 mi
Weather by CustomWeather, © 2015

See weather overviewHow to use our weather pages